Theta_e
311 311 312 315 314 314 314 315 317 317 317 317 318 319 331 333 334 335 336 336 336 336 336 335 335 334 333 331 331 331 328 328 328 328 330 328 328 326 326 326 326 326 326 327
311 312 313 314 314 313 313 314 314 315 317 317 330 330 332 333 334 335 335 335 336 336 335 335 334 334 332 331 331 331 329 328 328 328 328 327 327 327 327 326 326 327 328 326
312 314 315 315 314 314 313 315 316 317 317 318 332 333 330 333 334 334 335 334 335 335 335 335 334 332 330 330 330 330 330 329 328 328 327 326 326 326 327 326 326 326 327 326
312 313 317 315 317 319 315 315 316 324 322 321 327 331 331 331 333 334 335 334 335 335 335 335 334 330 329 329 329 329 329 329 329 329 327 326 327 326 327 327 326 326 327 327
314 311 316 319 316 318 321 325 327 327 328 328 329 329 330 331 332 334 334 334 334 334 335 335 334 328 327 329 329 329 329 329 330 330 327 327 326 327 327 326 326 326 326 327
314 316 316 318 312 313 316 327 325 325 326 328 328 329 329 330 330 333 334 334 334 334 334 334 332 327 327 329 328 329 330 330 330 328 328 328 327 328 329 328 328 328 328 327
312 310 316 310 310 312 325 328 321 324 325 328 327 328 328 329 329 331 333 333 334 334 334 333 329 327 327 327 327 329 330 330 330 329 329 328 328 329 328 328 328 328 329 329
316 316 317 310 312 321 319 318 320 321 324 329 329 328 329 330 330 331 333 334 334 334 333 331 328 327 326 327 328 329 330 330 330 329 328 328 329 329 329 329 328 329 330 329
312 312 307 309 315 314 315 315 317 318 321 327 326 326 326 329 331 331 334 334 333 334 332 329 327 326 326 326 328 328 331 330 330 330 330 330 328 327 331 329 328 328 328 327
310 313 312 312 313 314 315 315 315 317 321 322 322 323 323 325 330 332 333 334 334 333 331 328 327 326 324 325 327 327 331 330 331 331 330 328 324 329 329 328 328 327 327 326
312 312 313 312 313 313 315 316 315 318 319 320 320 321 322 323 325 327 332 333 334 333 332 330 327 326 324 325 327 327 331 330 331 331 330 330 323 326 328 329 329 328 327 325
313 311 312 313 313 313 314 316 315 317 318 318 318 319 322 322 323 324 328 333 335 334 332 331 327 326 324 326 326 327 331 330 331 331 331 330 323 328 329 329 328 330 329 328
311 311 312 312 313 313 313 315 315 316 317 317 317 317 318 318 321 323 326 333 334 333 331 332 329 326 323 327 325 326 330 331 331 331 331 331 329 326 326 327 327 329 331 329
312 312 312 312 312 312 313 313 314 315 316 316 317 317 318 318 319 322 325 329 334 336 333 331 330 328 324 327 327 325 327 329 330 331 331 331 332 328 328 328 325 325 330 330
311 312 312 311 311 311 312 313 313 313 314 315 315 316 317 318 319 319 323 328 329 331 334 331 330 328 326 325 327 325 325 329 328 329 330 330 331 331 329 329 327 325 325 329
312 312 312 312 311 310 311 311 311 310 310 312 313 314 315 316 318 318 319 324 325 327 332 333 331 329 327 325 327 326 325 327 327 327 329 330 330 331 332 329 329 328 327 324
310 311 311 311 311 310 310 309 309 309 309 309 310 311 313 315 317 318 318 321 322 325 330 332 333 331 329 327 326 327 326 325 326 327 327 327 328 329 329 332 330 330 330 328
311 310 311 309 309 309 309 308 307 306 306 307 308 308 310 312 313 315 317 319 320 321 325 323 326 330 330 328 327 327 327 327 325 325 325 325 325 327 328 328 330 330 330 330
310 310 309 309 308 309 309 307 306 305 305 306 306 306 307 308 310 313 316 317 317 320 321 321 322 328 332 330 330 327 327 327 326 326 325 325 325 326 326 327 326 328 328 330
311 310 310 309 308 308 309 307 307 305 304 304 305 305 305 306 308 312 315 314 314 314 317 320 322 324 326 329 331 329 328 327 327 326 326 325 325 325 325 326 325 325 325 325
309 309 309 307 307 308 307 306 306 306 304 303 303 302 303 304 306 309 313 314 314 314 315 316 318 321 322 322 324 331 331 331 331 328 327 327 326 325 324 326 327 325 324 323
309 309 309 308 307 307 307 307 306 305 304 303 303 302 302 303 305 306 307 309 310 311 314 315 316 316 318 319 319 325 328 330 333 333 333 330 328 327 326 326 325 326 326 325
309 309 308 308 307 307 307 307 306 305 305 303 302 302 301 301 301 303 306 307 308 310 311 314 315 316 316 316 315 316 322 326 325 327 330 332 332 330 328 326 326 326 325 325
308 307 309 308 307 306 307 306 306 305 304 302 302 301 301 302 302 301 302 304 307 309 310 311 313 315 315 315 316 317 317 319 321 324 326 328 328 330 332 332 332 329 328 328
308 309 308 308 307 307 307 306 303 301 301 301 301 301 301 301 301 301 301 301 303 305 308 309 311 313 314 315 316 316 317 317 318 320 320 323 325 327 328 331 332 332 331 330
309 309 308 307 307 307 306 305 301 300 300 300 301 302 301 301 301 301 301 301 301 302 302 304 307 309 311 312 313 315 316 317 318 320 323 324 325 326 326 327 331 331 330 330
309 309 308 307 306 305 306 305 305 303 300 300 300 301 301 300 300 301 301 301 301 301 301 301 301 303 306 308 309 310 311 313 314 316 317 318 319 322 325 326 326 327 329 329
Wind_Speed
12 16 16 14 15 10 9 8 4 6 14 17 14 11 14 26 30 31 32 35 36 34 33 30 28 26 23 21 21 22 16 13 8 5 5 10 13 12 13 10 7 6 4 2
16 18 18 18 14 14 13 13 11 18 21 18 14 3 14 27 32 29 31 33 36 35 33 31 28 27 24 22 21 20 16 12 6 6 10 12 11 14 12 11 7 8 5 1
7 14 8 6 13 11 5 8 4 7 6 14 6 8 5 21 30 31 32 34 37 36 34 32 28 27 26 24 19 18 18 10 7 8 10 13 13 11 12 9 9 7 6 4
5 9 5 3 11 9 13 11 9 12 18 13 3 10 10 4 25 32 35 35 37 35 34 31 28 27 24 24 19 17 16 11 11 9 13 14 12 12 11 10 10 10 7 5
3 3 4 3 8 7 6 5 4 11 9 9 9 16 10 12 14 35 40 37 36 35 34 31 31 28 25 26 22 19 16 15 12 12 16 15 12 13 11 12 13 11 10 8
2 4 3 2 12 16 9 3 6 13 7 3 9 4 2 11 6 22 27 36 37 36 35 33 33 31 26 28 22 21 18 15 13 14 16 14 10 9 9 11 12 12 11 7
8 3 4 6 17 32 6 1 22 20 18 6 7 4 3 3 9 12 18 33 36 38 37 35 34 31 26 26 22 21 20 12 16 15 13 12 10 9 8 10 11 12 11 8
2 2 2 15 18 5 6 14 21 25 17 13 18 6 7 9 9 7 10 30 37 39 38 35 34 30 26 23 24 22 22 17 18 16 13 11 9 10 10 8 8 9 11 10
4 2 7 20 15 24 23 20 20 25 9 28 22 20 24 27 21 12 10 30 39 39 37 36 33 29 28 23 25 22 25 21 20 18 15 11 9 14 12 9 8 7 9 10
3 3 7 23 26 24 23 23 24 19 27 36 29 28 27 33 28 20 17 29 38 37 37 37 34 29 27 25 25 21 28 24 23 18 13 8 10 10 9 9 9 7 9 11
4 7 6 15 21 23 23 25 37 24 35 33 34 32 32 37 36 30 20 15 24 35 35 34 33 29 27 26 26 22 29 25 24 20 16 10 11 12 10 7 5 4 6 8
2 9 6 10 10 20 22 27 38 21 28 30 31 30 30 36 31 32 31 20 17 32 34 31 34 30 29 29 29 23 30 27 25 22 19 12 12 14 11 9 6 5 3 3
4 13 7 10 17 23 25 22 30 32 30 31 29 26 29 31 29 28 30 28 15 15 34 32 33 33 30 30 29 26 30 27 26 23 22 17 15 16 13 11 10 10 10 7
8 11 12 18 16 20 18 17 21 24 25 26 25 24 28 30 28 26 28 27 25 9 21 33 32 32 30 31 28 30 26 26 26 25 22 20 17 17 15 13 12 12 13 11
10 11 9 12 15 14 13 15 18 21 22 22 20 20 23 28 28 26 20 23 29 26 12 22 32 34 30 31 30 30 27 30 28 26 23 20 19 18 19 17 15 13 13 15
6 9 7 8 11 13 14 16 16 18 18 18 17 18 19 18 20 22 22 21 30 29 24 13 20 29 31 32 30 28 30 27 29 27 25 23 21 23 22 21 21 20 19 18
8 9 7 9 11 12 14 16 17 18 18 18 17 15 12 13 13 20 21 19 20 20 26 26 17 16 26 31 32 33 30 29 28 28 27 26 26 27 27 27 26 26 23 22
9 9 8 11 13 14 16 17 22 22 18 15 13 12 10 12 17 19 21 16 15 19 19 24 21 13 13 21 30 35 34 32 33 31 29 29 27 28 30 30 29 28 27 27
8 9 10 13 15 16 14 15 21 24 20 20 22 21 16 11 11 13 14 16 20 22 16 18 15 11 12 6 10 24 32 35 36 35 33 32 29 28 32 32 33 33 30 29
7 5 8 10 13 14 13 18 21 29 28 22 21 22 21 18 11 9 11 17 21 21 13 10 11 9 10 9 9 11 14 22 31 38 38 33 32 33 30 32 34 35 35 34
10 8 8 13 13 16 16 21 23 26 26 30 31 27 19 14 12 9 6 10 15 16 12 14 12 9 12 10 7 8 9 8 7 22 32 37 35 34 35 35 34 36 39 38
11 9 7 12 14 16 13 18 19 21 25 29 28 29 29 24 17 12 12 15 13 10 11 13 15 13 11 11 9 3 5 7 9 7 3 23 32 37 38 37 40 38 37 41
11 9 9 9 10 13 11 12 14 17 21 25 26 26 28 27 26 23 17 16 15 10 8 9 10 11 10 10 10 7 3 2 3 4 3 5 0 12 23 34 40 42 45 43
9 4 7 6 9 6 4 5 9 12 14 18 21 23 27 27 29 27 23 19 15 15 10 7 7 8 10 8 7 6 5 6 3 4 4 4 4 5 6 6 16 34 39 36
9 9 10 13 12 8 4 5 7 8 10 14 17 20 23 26 28 28 29 31 26 21 20 13 6 8 10 12 11 10 10 9 11 11 9 7 7 10 11 10 10 10 17 23
13 13 12 11 6 7 6 5 9 9 9 12 12 15 19 20 23 26 29 30 31 34 32 27 21 14 10 11 12 13 13 12 9 9 10 10 8 7 9 10 8 8 8 9
15 14 16 12 10 9 8 6 7 9 7 9 10 12 14 16 20 23 24 29 31 33 34 36 35 29 22 16 14 14 14 15 14 13 12 12 11 11 10 10 12 11 10 8
Wind_Direction
270 269 270 252 263 269 254 256 258 287 271 290 274 270 185 158 145 144 148 154 160 162 163 165 164 164 163 162 165 162 164 163 177 207 198 172 164 158 150 167 175 180 206 236
290 275 247 239 231 237 241 263 260 264 278 269 340 210 147 159 149 149 154 158 164 166 165 167 168 170 167 168 167 176 180 167 181 187 150 158 169 168 171 178 185 205 212 301
274 315 188 227 236 237 197 190 198 253 254 309 38 359 345 156 152 155 159 165 167 171 171 171 168 168 170 171 167 181 174 172 178 154 170 161 156 164 172 187 188 208 211 248
280 271 210 96 31 0 187 216 212 268 251 259 217 129 93 160 161 158 166 171 173 174 176 175 174 168 165 168 169 173 172 179 169 179 164 157 169 175 184 188 200 214 224 243
257 244 289 92 27 1 18 257 292 323 151 118 63 82 37 86 176 173 176 179 178 179 178 177 176 169 171 176 171 172 181 183 174 171 162 160 173 184 202 206 213 220 230 252
270 287 242 85 310 320 311 252 308 337 358 325 108 98 250 178 131 179 182 181 182 182 180 178 179 174 171 175 174 177 179 176 165 163 158 164 179 193 212 214 219 227 231 233
226 246 277 16 309 295 207 333 318 329 335 330 76 120 112 115 122 107 179 190 188 184 180 180 179 175 171 173 176 182 180 176 161 161 167 178 183 198 211 191 198 219 212 212
220 243 285 313 291 84 328 333 338 329 333 84 44 53 84 85 92 74 152 185 188 183 181 178 180 177 172 175 171 189 182 175 165 164 173 189 204 202 190 182 179 189 195 195
1 40 277 279 16 10 8 354 320 323 330 104 78 63 60 67 85 92 93 174 183 184 180 180 182 181 175 174 177 190 190 179 173 176 190 199 204 178 182 183 189 185 186 187
236 30 26 14 5 4 4 344 324 308 69 74 70 61 51 56 71 82 86 173 182 182 182 182 185 186 178 172 182 191 185 183 183 181 180 182 187 181 181 179 184 181 173 179
316 352 352 12 11 354 8 3 353 37 57 58 59 55 52 52 56 59 70 138 188 187 186 188 188 187 179 175 185 191 186 188 190 186 180 174 179 178 182 166 153 144 167 178
351 291 341 322 331 22 17 342 350 45 53 53 52 48 48 46 52 51 53 70 167 196 194 193 192 188 184 183 189 194 190 192 194 189 183 185 176 178 187 203 190 201 201 160
278 328 358 346 14 28 24 13 21 48 54 57 52 48 44 40 38 47 52 59 82 181 199 200 195 192 189 188 192 196 200 199 197 195 192 190 188 190 193 209 219 197 202 167
10 1 10 19 10 24 23 19 31 52 48 49 46 46 41 43 35 32 39 43 55 87 201 203 201 197 193 190 195 200 204 210 205 204 205 203 203 199 207 217 200 185 202 202
22 13 9 19 14 17 28 14 31 30 28 34 41 40 39 38 41 39 37 43 52 52 94 203 211 206 199 195 197 202 205 209 213 214 214 216 211 212 217 220 222 214 198 191
49 47 53 60 48 25 28 36 24 25 20 16 17 19 27 38 42 46 44 43 36 40 42 54 193 216 208 204 203 206 210 213 216 217 216 215 221 222 222 224 229 233 228 220
65 58 57 62 48 51 35 38 33 21 13 8 7 358 9 19 37 44 47 58 52 45 58 53 45 201 212 215 213 214 213 214 220 219 217 218 221 228 229 230 232 233 236 235
91 77 77 68 69 66 59 42 26 21 19 11 1 356 5 16 25 26 36 47 70 56 61 50 47 66 185 207 219 220 222 222 219 221 224 222 224 224 232 233 234 238 239 240
89 86 76 69 61 51 60 40 37 32 38 29 28 26 24 13 17 33 49 54 56 59 55 43 44 68 86 149 214 221 227 226 225 227 228 229 226 229 233 235 236 238 242 242
115 93 89 60 58 46 59 38 37 33 36 37 40 32 26 25 26 43 57 53 51 47 46 41 26 32 53 83 114 170 200 227 233 230 231 234 235 234 233 238 242 241 242 246
125 127 92 65 59 53 51 41 36 32 33 35 40 40 36 33 38 48 53 50 38 38 34 38 31 10 9 13 53 97 106 146 182 233 240 240 242 241 238 238 240 245 246 249
116 117 110 63 58 55 54 42 37 31 31 33 35 37 39 45 57 63 43 22 8 12 19 31 35 27 3 354 340 337 84 82 82 90 190 230 240 248 251 249 245 244 245 247
128 118 115 85 83 67 77 53 45 29 27 29 31 36 42 41 42 43 39 26 20 4 351 3 16 17 9 357 3 9 293 309 63 47 8 33 29 252 259 258 257 255 253 253
146 128 125 123 119 97 83 62 30 20 24 32 38 40 43 47 50 49 45 40 36 28 7 342 355 8 13 13 12 10 8 19 343 345 347 302 315 301 296 297 265 255 257 260
161 147 139 152 137 127 114 38 40 40 39 41 44 43 44 48 48 46 46 45 43 42 40 36 23 29 31 32 29 24 24 16 8 3 347 330 312 291 299 308 312 295 253 250
173 163 163 164 158 158 142 80 73 51 46 45 46 47 45 47 48 48 46 46 45 45 46 43 39 35 32 29 24 22 23 23 22 10 14 18 6 340 320 314 305 304 297 268
183 166 169 164 159 184 166 105 79 56 62 57 54 46 43 45 48 48 46 46 46 45 44 44 44 43 40 34 25 16 12 11 7 3 356 353 350 349 341 331 320 314 307 311